Regional Weather Roundup
Issued by NWS

Home | Current Version | Previous Version | Graphics & Text | Print | Product List | Glossary On
Versions: 1 2 3 4 5 6 7 8 9 10 11 12 13 14 15 16 17 18 19 20 21 22 23 24 25 26 27 28 29 30 31 32 33 34 35 36 37 38 39 40 41 42 43 44 45 46 47 48 49 50
000
ASUS45 KBOI 151610
RWRID

IDAHO REGIONAL WEATHER ROUNDUP
NATIONAL WEATHER SERVICE BOISE ID
900 AM MST FRI DEC 15 2017

NOTE: "FAIR" INDICATES FEW OR NO CLOUDS BELOW 12000 FEET
WITH NO SIGNIFICANT WEATHER AND/OR OBSTRUCTIONS TO VISIBILITY

IDZ012-014-151700-
SOUTHWEST IDAHO


CITY           SKY/WX    TMP DP  RH WIND       PRES   REMARKS
BOISE          CLOUDY    26  22  84 SE5       30.35R WCI  20
CALDWELL       CLOUDY    28  26  92 SE5       30.37F FOG     WCI  23
MOUNTAIN HOME  CLOUDY    24  24 100 E3        30.34R
$$

IDZ016-017-151700-
SOUTHCENTRAL IDAHO


CITY           SKY/WX    TMP DP  RH WIND       PRES   REMARKS
BURLEY         CLEAR     20  16  84 E5        30.26S WCI  13
JEROME         MOCLDY    24  19  81 E6        30.27F HAZE    WCI  17
TWIN FALLS     FOG       21  20  96 E5        30.27F VSB<1/4 WCI  15
$$

IDZ019>023-151700-
SOUTHEAST IDAHO


CITY           SKY/WX    TMP DP  RH WIND       PRES   REMARKS
IDAHO FALLS    FOG       18  16  92 E3        30.30F VSB 1/2
POCATELLO      FOG       17  15  92 NE9       30.31R VSB 1/2 WCI   6
REXBURG        CLOUDY    19  17  92 CALM      30.24F FOG
$$

IDZ006-010-011-018-031-032-151700-
CENTRAL IDAHO MOUNTAINS


CITY           SKY/WX    TMP DP  RH WIND       PRES   REMARKS
MCCALL         FOG       14  11  87 CALM      30.19F VSB 1/4
HAILEY         PTCLDY    19  16  86 NW9       30.25F WCI   9
STANLEY        NOT AVBL
SALMON         CLOUDY    27  22  81 CALM      30.25F
CHALLIS        CLOUDY    21  17  84 CALM      30.23F
$$

IDZ002-004-006-007-026-151700-
NORTHERN IDAHO


CITY           SKY/WX    TMP DP  RH WIND       PRES   REMARKS
LEWISTON       FOG       28  27  96 NW5       30.17F VSB 1/2 WCI  23
LOWELL           N/A     29  27  92 CALM      30.24F
COEUR D`ALENE  CLOUDY    30  28  92 CALM      30.16F
MULLAN PASS    CLOUDY    27  21  78 VRB6      29.99F WCI  20
$$



USA.gov is the U.S. government's official web portal to all federal, state and local government web resources and services.